User: anonymous   Login
Location: Bégole
(43.1574°N, 0.3291°E)
Time: 08:41:55
(UTC+00:00)
Language:

Spot 1 - Orbit

View from above orbital plane
View from above orbital plane
View from above satellite
View from above satellite

Ground track
Ground track

The orbit data is extracted from the following two-line orbital elements,

1 16613U 86019A   24104.65893673  .00001439  00000-0  23185-3 0  9998
2 16613  98.7111 337.5630 0136810 228.7431 130.1921 14.67265629694294
Epoch (UTC): 13 April 2024 15:48:52
Eccentricity: 0.0136810
inclination: 98.7111°
perigee height: 573 km
apogee height: 766 km
right ascension of ascending node: 337.5630°
argument of perigee: 228.7431°
revolutions per day: 14.67265629
mean anomaly at epoch: 130.1921°
orbit number at epoch: 69429

The dashed part of the orbit path shows where the satellite is in the earth's shadow,  

DLR